カタログに戻る

ARIANE 5 DEB

SYLDA

運用中HEO
NORAD 44803·DEBRIS·🇫🇷 France

打ち上げ Nov 26, 2019 から Guiana Space Centre

Loading…

次のパス (今後24時間)

TLE

最新Source: Space-Track

元期: Sep 14, 2026, 01:16 UTC

1 44803U 19080D   26257.05309006  .00164243  00000-0  40534-2 0  9990
2 44803   5.3243 131.9332 3633942 303.2990  26.9679  8.19796825111216

AllMySatでARIANE 5 DEBをリアルタイム追跡

Download on the App Store